Flag for Spain Weather past 2 weeks in Almería, Spain

Now
65 °F

Clear.


Feels Like: 65 °F
Forecast: 65 / 81 °F
Wind: No wind

Location: Almeria / Aeropuerto

Current Time: Oct 21, 2014 at 6:21:11 AM

Latest Report: Oct 21, 2014 at 5:00 AM


Visibility: 16 mi

Pressure: 30.11 "Hg

Humidity: 70%

Dew point: 55 °F

Location of AlmeríaLocation

Historic Weather in Almería — Graph

°F

Almería temperature yesterday

Maximum temperature yesterday: 90 °F (at 4:00 PM)
Minimum temperature yesterday: 74 °F (at 8:00 AM)
Average temperature yesterday: 80 °F

Past Weeks' High & Low Weather Summary

 TemperatureHumidityPressure
High90 °F (Oct 19, 4:00 PM)96% (Oct 17, 6:00 AM)30.15 "Hg (Oct 17, 6:00 AM)
Low59 °F (Oct 13, 7:00 AM)29% (Oct 19, 9:00 PM)29.78 "Hg (Oct 11, 6:00 PM)
Average72 °F68%29.96 "Hg
* Reported Oct 6 4:00 AM — Oct 21 4:00 AM, Almería, Weather by CustomWeather, © 2014

Note: Actual official high and low records may vary slightly from our data, if they occured in-between our weather recording intervals... More about our weather records

Advertising

Almería weather history for previous 24 hours

 ConditionsComfort  
Time TempWeatherWind HumidityBarometerVisibility
4:00 AM
Oct 21
66 °FMild.2 mph72%30.12 "HgN/A
3:00 AM68 °FMild.5 mph80%30.13 "HgN/A
2:00 AM68 °FMild.2 mph85%30.14 "HgN/A
1:00 AM71 °FMild.1 mph85%30.14 "HgN/A
12:00 AM72 °FMild.6 mph81%30.14 "HgN/A
11:00 PM
Oct 20
75 °FMild.1 mph57%30.11 "HgN/A
10:00 PM74 °FMild.2 mph75%30.10 "HgN/A
9:00 PM75 °FMild.5 mph74%30.10 "HgN/A
8:00 PM78 °FPassing clouds.5 mph69%30.08 "Hg12 mi
7:00 PM80 °FWarm.12 mph64%30.07 "HgN/A
6:00 PM84 °FWarm.15 mph49%30.06 "HgN/A
5:00 PM89 °FPassing clouds.17 mph39%30.05 "Hg16 mi
4:00 PM90 °FHot.15 mph35%30.07 "HgN/A
3:00 PM90 °FHot.16 mph32%30.09 "HgN/A
2:00 PM89 °FPassing clouds.18 mph31%30.11 "Hg16 mi
1:00 PM88 °FHot.14 mph30%30.14 "HgN/A
12:00 PM86 °FPleasantly warm.15 mph31%30.15 "HgN/A
11:00 AM82 °FSunny.No wind31%30.15 "Hg19 mi
10:00 AM78 °FPleasantly warm.1 mph30%30.14 "HgN/A
9:00 AM74 °FMild.2 mph33%30.12 "HgN/A
8:00 AM74 °FClear.5 mph33%30.10 "Hg16 mi
7:00 AM76 °FMild.9 mph31%30.08 "HgN/A
Weather by CustomWeather, © 2014

See weather overviewHow to use our weather pages